[[{"header":{"parameterUnit":"m.s-1","parameterCategory":1,"la1":30.2992,"la2":30.254,"lo1":-89.0895,"lo2":-89.0443,"dy":0.0025,"dx":0.0025,"nx":19,"ny":19,"refTime":"2026-03-26T03:00:00:Z","depth":0,"parameterNumber":2,"parameterNumberName":"U-component_of_WINDS"},"data":[0,0,0,0.1682,0.1682,0.169,0.169,0.1698,0.1698,0,0,0,0,0,0,0,0,0,0,0,0.168,0.168,0.1682,0.1682,0.169,0.169,0.1698,0.1698,0,0,0,0,0,0,0,0,0,0,0,0.168,0.168,0.168,0.1682,0.169,0.169,0.1698,0.1693,0,0,0,0,0,0,0,0,0,0,0.1686,0.1683,0.168,0.168,0.1683,0.169,0.169,0.1693,0.1693,0.1694,0,0.1695,0,0.1697,0.1699,0.1699,0,0,0,0.1683,0.1683,0.1685,0.168,0.1683,0.169,0.1686,0.1693,0.1694,0.1695,0.1696,0.1696,0.1697,0.1699,0.1699,0.1705,0.1705,0,0,0.1682,0.1681,0.1685,0.1685,0.1685,0.1686,0.1687,0.1693,0.1694,0.1696,0.1696,0.1697,0.1699,0.1699,0.1705,0.1705,0,0,0,0.1681,0.1681,0.1683,0.1685,0.1687,0.1686,0.1687,0.1693,0.1694,0.1696,0.1697,0.1699,0.1699,0.1705,0.1705,0.1704,0,0,0,0.1681,0.168,0.1683,0.1682,0.1686,0.169,0.1687,0.1694,0.1695,0.1697,0.1699,0.1699,0.1705,0.1705,0.1704,0.1704,0,0,0,0.1679,0.168,0.1681,0.1682,0.1685,0.169,0.1691,0.1694,0.1695,0.1699,0.1699,0.1705,0.1705,0.1704,0.1704,0.1705,0,0,0,0.1678,0.168,0.1681,0.1683,0.1685,0.169,0.1691,0.1695,0.1698,0.1699,0.1705,0.1705,0.1704,0.1704,0.1705,0.1705,0.1705,0,0,0.168,0.168,0.1682,0.1683,0.1687,0.1689,0.1693,0.1697,0.1699,0.1703,0.1703,0.1704,0.1704,0.1705,0.1707,0.1707,0,0,0,0.1682,0.1683,0.1685,0.1688,0.1691,0.1693,0.1697,0.1698,0.1701,0.17,0.1705,0.1705,0.1705,0.1706,0.1706,0.1706,0.1705,0.1705,0.1705,0.1683,0.1685,0.1688,0.1691,0.1693,0.1696,0.1698,0.1701,0.1702,0.1703,0.1704,0.1705,0.1706,0.1706,0.1706,0.1705,0.1705,0.1705,0.1705,0.1686,0.1688,0.169,0.1693,0.1695,0.1698,0.1701,0.1702,0.1705,0.1705,0.1705,0.1705,0.1706,0.1706,0.1705,0.1705,0.1705,0.1705,0.1705,0.1687,0.1688,0.169,0.1694,0.1696,0.1698,0.1701,0.1703,0.1704,0.1705,0.1706,0.1706,0.1706,0.1705,0.1705,0.1705,0.1705,0.1705,0.1705,0.1687,0.1689,0.1691,0.1694,0.1696,0.1698,0.1701,0.1703,0.1705,0.1706,0.1706,0.1707,0.1705,0.1705,0.1705,0.1705,0.1705,0.1705,0.1705,0.169,0.1689,0.1692,0.1694,0.1697,0.17,0.1701,0.1704,0.1706,0.1707,0.1708,0.1707,0.1707,0.1707,0.1707,0.1708,0.1708,0.1708,0.1708,0.169,0.1691,0.1694,0.1696,0.1699,0.1701,0.1704,0.1706,0.1708,0.1709,0.1709,0.1709,0.1709,0.1709,0.1709,0.1709,0.171,0.171,0.171,0.1692,0.1692,0.1695,0.1697,0.17,0.1702,0.1704,0.1707,0.1709,0.171,0.171,0.171,0.1709,0.1709,0.171,0.171,0.1709,0,0]},{"header":{"parameterUnit":"m.s-1","parameterCategory":1,"la1":30.2992,"la2":30.254,"lo1":-89.0895,"lo2":-89.0443,"dy":0.0025,"dx":0.0025,"nx":19,"ny":19,"refTime":"2026-03-26T03:00:00:Z","depth":0,"parameterNumber":3,"parameterNumberName":"V-component_of_WINDS"},"data":[0,0,0,3.1806,3.1809,3.1953,3.1953,3.2127,3.2129,0,0,0,0,0,0,0,0,0,0,0,3.1759,3.176,3.1805,3.1809,3.1953,3.1953,3.2127,3.2129,0,0,0,0,0,0,0,0,0,0,0,3.1758,3.176,3.1761,3.181,3.1953,3.1953,3.2126,3.2021,0,0,0,0,0,0,0,0,0,0,3.1883,3.1836,3.1759,3.1761,3.181,3.1952,3.1953,3.2016,3.2028,3.2058,0,3.2086,0,3.211,3.214,3.214,0,0,0,3.1812,3.1826,3.1869,3.1761,3.1812,3.1952,3.1889,3.2023,3.2036,3.2073,3.2088,3.2095,3.2113,3.2141,3.2142,3.2315,3.2315,0,0,3.1804,3.1782,3.186,3.1877,3.1857,3.1884,3.1893,3.2031,3.2045,3.2089,3.2099,3.2116,3.2142,3.2143,3.2314,3.2315,0,0,0,3.1779,3.1776,3.1816,3.187,3.1897,3.1888,3.1899,3.2039,3.2054,3.2101,3.2118,3.2143,3.2145,3.2313,3.2314,3.2328,0,0,0,3.1774,3.1762,3.1812,3.18,3.1894,3.197,3.1903,3.2044,3.206,3.2117,3.2143,3.2147,3.2313,3.2314,3.2326,3.2338,0,0,0,3.1751,3.1759,3.1779,3.1799,3.186,3.1968,3.1991,3.2048,3.207,3.214,3.2147,3.2312,3.2314,3.2325,3.2335,3.2379,0,0,0,3.1718,3.1787,3.1778,3.1861,3.1859,3.1976,3.1991,3.2079,3.214,3.2144,3.2313,3.2314,3.2324,3.2334,3.2376,3.2411,3.2424,0,0,3.1792,3.1795,3.1846,3.1842,3.1956,3.1956,3.2072,3.2148,3.2173,3.2265,3.227,3.2327,3.2335,3.2378,3.25,3.2509,0,0,0,3.1862,3.1898,3.1933,3.1992,3.2054,3.2107,3.2168,3.2197,3.2277,3.2217,3.2355,3.236,3.2386,3.2404,3.2412,3.2436,3.2321,3.2321,3.2321,3.1934,3.1966,3.2052,3.2101,3.2158,3.2222,3.227,3.2319,3.2332,3.2364,3.2391,3.2462,3.2482,3.2488,3.2513,3.2412,3.2412,3.2412,3.2412,3.2046,3.2102,3.2121,3.2211,3.2243,3.2318,3.2382,3.2389,3.2463,3.2443,3.2467,3.2443,3.2498,3.2521,3.2413,3.2413,3.2413,3.2413,3.2413,3.2097,3.213,3.2165,3.2255,3.2321,3.2367,3.2439,3.2465,3.2489,3.2514,3.2546,3.2546,3.255,3.2527,3.2528,3.2528,3.2528,3.2528,3.2529,3.2136,3.2176,3.2234,3.2307,3.2349,3.2408,3.2474,3.2515,3.2568,3.2581,3.2582,3.2592,3.2498,3.2474,3.2533,3.2532,3.2531,3.2531,3.2531,3.2238,3.222,3.231,3.2353,3.2441,3.2505,3.2538,3.2622,3.266,3.2694,3.27,3.2626,3.2629,3.2623,3.2603,3.2692,3.2692,3.2692,3.2692,3.2282,3.2287,3.2386,3.2453,3.2521,3.2561,3.2661,3.2713,3.2763,3.2789,3.278,3.2756,3.2748,3.2756,3.2747,3.2729,3.2848,3.2849,3.2849,3.2347,3.236,3.2441,3.2493,3.2564,3.2624,3.272,3.2794,3.2847,3.2856,3.281,3.2803,3.2765,3.2751,3.2757,3.2742,3.271,0,0]}]]